DW8427 Weather Reports


Display with metric or nautical units.
time (UTC)temp
F
wind
direction
speed
MPH
gust
MPH
rain 1hr
in
rain 24hr
in
rain mn
in
humidity
%
barometer
mb
20260508130051 53 144 0.0 4.0 0.00 0.00 0.00 89 1016.6
20260508124549 53 109 0.0 2.0 0.00 0.00 0.00 89 1016.5
20260508123048 53 131 0.0 3.0 0.00 0.00 0.00 89 1016.5
20260508121550 53 120 0.0 3.0 0.00 0.00 0.00 89 1016.2
20260508120050 54 136 0.0 2.0 0.00 0.00 0.00 88 1016.3
20260508114542 54 116 0.0 2.0 0.00 0.00 0.00 88 1016.2
20260508113052 54 109 0.0 3.0 0.00 0.00 0.00 88 1016.1
20260508111539 54 169 0.0 4.0 0.00 0.00 0.00 88 1016.1
20260508110038 54 133 0.0 4.0 0.00 0.00 0.00 87 1016.0
20260508104536 55 117 0.0 2.0 0.00 0.00 0.00 87 1016.1
20260508103036 55 146 0.0 2.0 0.00 0.00 0.00 87 1016.1
20260508101542 55 105 0.0 2.0 0.00 0.00 0.00 86 1016.1
20260508100031 56 101 0.0 1.0 0.00 0.00 0.00 86 1016.1
20260508094529 56 86 0.0 1.0 0.00 0.00 0.00 86 1016.0
20260508093030 56 104 0.0 3.0 0.00 0.00 0.00 86 1016.0
20260508091545 56 101 0.0 2.0 0.00 0.00 0.00 85 1016.1
20260508090024 56 129 0.0 3.0 0.00 0.00 0.00 85 1015.9
20260508084521 56 108 0.0 2.0 0.00 0.00 0.00 85 1015.8
20260508083029 57 105 0.0 3.0 0.00 0.00 0.00 84 1015.9
20260508081517 57 127 1.0 5.0 0.00 0.00 0.00 84 1015.8
20260508080013 58 138 1.0 6.0 0.00 0.00 0.00 83 1015.8
20260508074510 59 101 0.0 4.0 0.00 0.00 0.00 83 1015.6
20260508073009 60 124 0.0 6.0 0.00 0.00 0.00 83 1015.6
20260508071504 61 156 1.0 5.0 0.00 0.00 0.00 82 1015.5
20260508064600 62 117 0.0 3.0 0.00 0.00 0.00 80 1015.3
20260508063001 62 117 0.0 5.0 0.00 0.00 0.00 80 1015.3
20260508061559 63 96 0.0 4.0 0.00 0.00 0.00 78 1015.3
20260508060058 63 131 0.0 3.0 0.00 0.00 0.00 77 1015.3
20260508054558 64 127 0.0 3.0 0.00 0.00 0.00 77 1015.4
20260508053102 65 131 0.0 0.0 0.00 0.00 0.00 77 1015.3
20260508051618 66 99 0.0 4.0 0.00 0.00 0.00 75 1015.3
20260508050057 67 150 0.0 3.0 0.00 0.00 0.00 74 1015.2
20260508044556 68 137 0.0 3.0 0.00 0.00 0.00 73 1015.1
20260508043055 70 106 0.0 1.0 0.00 0.00 0.00 72 1015.0
20260508041555 71 153 0.0 1.0 0.00 0.00 0.00 71 1014.8
20260508040054 72 74 0.0 2.0 0.00 0.00 0.00 69 1014.7
20260508034554 73 99 0.0 3.0 0.00 0.00 0.00 68 1014.5
20260508033054 75 32 0.0 1.0 0.00 0.00 0.00 67 1014.3
20260508031552 77 205 0.0 3.0 0.00 0.00 0.00 63 1014.1
20260508030054 79 161 0.0 0.0 0.00 0.00 0.00 58 1013.9
20260508024551 81 126 0.0 2.0 0.00 0.00 0.00 55 1013.8
20260508023052 82 283 0.0 2.0 0.00 0.00 0.00 53 1013.7
20260508021553 83 133 0.0 3.0 0.00 0.00 0.00 52 1013.7
20260508014548 85 133 0.0 2.0 0.00 0.00 0.00 48 1013.7
20260508013047 84 127 0.0 0.0 0.00 0.00 0.00 50 1013.8
20260508011550 85 287 0.0 3.0 0.00 0.00 0.00 48 1013.9
20260508010058 86 134 0.0 1.0 0.00 0.00 0.00 49 1013.9
20260508004544 86 219 0.0 1.0 0.00 0.00 0.00 48 1014.0
20260508003042 85 290 2.0 6.0 0.00 0.00 0.00 48 1014.1
20260508001539 85 349 0.0 1.0 0.00 0.00 0.00 49 1014.2
20260508000045 85 136 0.0 4.0 0.00 0.00 0.00 49 1014.2
20260507234538 85 103 0.0 0.0 0.00 0.00 0.00 49 1014.2
20260507233039 83 109 0.0 3.0 0.00 0.00 0.00 50 1014.4
20260507231532 84 131 0.0 1.0 0.00 0.00 0.00 50 1014.5
20260507230046 83 214 0.0 3.0 0.00 0.00 0.00 50 1014.7
20260507224532 82 284 0.0 5.0 0.00 0.00 0.00 52 1014.9
20260507223057 82 237 0.0 4.0 0.00 0.00 0.00 51 1015.2
20260507221524 82 286 1.0 4.0 0.00 0.00 0.00 52 1015.4
20260507220021 82 283 0.0 1.0 0.00 0.00 0.00 52 1015.7
20260507214518 81 281 0.0 5.0 0.00 0.00 0.00 53 1015.9
20260507213017 81 128 0.0 4.0 0.00 0.00 0.00 53 1016.1
20260507211514 79 86 0.0 5.0 0.00 0.00 0.00 54 1016.4
20260507210017 79 283 1.0 6.0 0.00 0.00 0.00 54 1016.5
20260507204508 79 335 0.0 5.0 0.00 0.00 0.00 55 1016.7
20260507203017 79 289 0.0 4.0 0.00 0.00 0.00 55 1016.8
20260507201503 78 178 0.0 3.0 0.00 0.00 0.00 56 1017.0
20260507200000 78 278 0.0 2.0 0.00 0.00 0.00 57 1017.1
20260507194559 76 281 0.0 5.0 0.00 0.00 0.00 57 1017.3
20260507193057 76 287 0.0 5.0 0.00 0.00 0.00 58 1017.6
20260507191556 76 11 0.0 6.0 0.00 0.00 0.00 59 1017.6
20260507190054 75 133 0.0 1.0 0.00 0.00 0.00 59 1017.8
20260507184552 75 88 0.0 4.0 0.00 0.00 0.00 58 1017.9
20260507183052 75 332 0.0 0.0 0.00 0.00 0.00 60 1018.1
20260507181547 73 89 0.0 1.0 0.00 0.00 0.00 61 1018.1
20260507180047 71 292 0.0 1.0 0.00 0.00 0.00 64 1018.1
20260507174553 70 309 0.0 4.0 0.00 0.00 0.00 66 1018.2
20260507173042 71 266 0.0 2.0 0.00 0.00 0.00 68 1018.2
20260507171542 69 271 0.0 1.0 0.00 0.00 0.00 68 1018.3
20260507170043 67 268 0.0 2.0 0.00 0.00 0.00 71 1018.4
20260507164534 67 84 0.0 1.0 0.00 0.00 0.00 71 1018.3
20260507163032 66 160 0.0 0.0 0.00 0.00 0.00 73 1018.4
20260507161532 64 96 0.0 0.0 0.00 0.00 0.00 75 1018.5
20260507160027 63 69 0.0 0.0 0.00 0.00 0.00 76 1018.6
20260507154527 62 136 0.0 0.0 0.00 0.00 0.00 77 1018.7
20260507153023 60 226 0.0 0.0 0.00 0.00 0.00 81 1018.6
20260507151525 59 237 0.0 0.0 0.00 0.00 0.00 82 1018.6
20260507150021 58 94 0.0 1.0 0.00 0.00 0.00 83 1018.7
20260507144526 57 127 0.0 1.0 0.00 0.00 0.00 84 1018.7
20260507143017 56 123 0.0 1.0 0.00 0.00 0.00 84 1018.6
20260507141517 56 151 0.0 0.0 0.00 0.00 0.00 85 1018.5
20260507140014 56 162 0.0 1.0 0.00 0.00 0.00 85 1018.3
20260507134512 56 131 0.0 1.0 0.00 0.00 0.00 85 1018.1
20260507133010 56 122 0.0 1.0 0.00 0.00 0.00 86 1018.1
20260507131521 56 110 0.0 0.0 0.00 0.00 0.00 86 1017.9